TimeEDT,TemperatureF,Dew PointF,Humidity,Sea Level PressureIn,VisibilityMPH,Wind Direction,Wind SpeedMPH,Gust SpeedMPH,PrecipitationIn,Events,Conditions,WindDirDegrees,DateUTC
12:05 AM,46.4,44.6,93,29.84,4.0,ENE,13.8,23.0,0.00,Rain-Thunderstorm,Light Thunderstorms and Rain,70,2013-04-11 04:05:00
12:27 AM,44.6,44.6,100,29.84,2.5,ENE,15.0,-,0.12,Rain,Rain,70,2013-04-11 04:27:00
12:39 AM,44.6,44.6,100,29.83,3.0,ENE,15.0,-,0.16,Rain,Light Rain,70,2013-04-11 04:39:00
12:54 AM,45.0,44.1,97,29.82,5.0,East,16.1,25.3,0.16,,Overcast,80,2013-04-11 04:54:00
1:54 AM,45.0,43.0,93,29.81,7.0,ENE,18.4,27.6,N/A,,Overcast,70,2013-04-11 05:54:00
2:54 AM,44.1,42.1,93,29.75,7.0,ENE,24.2,29.9,0.00,Thunderstorm,Thunderstorm,70,2013-04-11 06:54:00
3:09 AM,44.6,42.8,93,29.88,7.0,West,36.8,48.3,0.00,Rain-Thunderstorm,Light Thunderstorms and Rain,270,2013-04-11 07:09:00
3:13 AM,44.6,42.8,93,29.80,6.0,NE,9.2,48.3,0.00,Rain-Thunderstorm,Light Thunderstorms and Rain,50,2013-04-11 07:13:00
3:19 AM,44.6,42.8,93,29.84,2.0,East,13.8,35.7,0.04,Rain-Thunderstorm,Heavy Thunderstorms and Rain,80,2013-04-11 07:19:00
3:44 AM,44.6,42.8,93,29.83,5.0,NE,11.5,-,0.25,Rain,Light Rain,50,2013-04-11 07:44:00
3:54 AM,44.1,43.0,96,29.84,3.0,ENE,11.5,-,0.28,Rain,Rain,60,2013-04-11 07:54:00
4:11 AM,44.6,42.8,93,29.84,3.0,NE,10.4,-,0.06,Rain,Rain,50,2013-04-11 08:11:00
4:16 AM,44.6,42.8,93,29.84,2.5,NE,10.4,-,0.08,Rain,Heavy Rain,50,2013-04-11 08:16:00
4:25 AM,44.6,42.8,93,29.84,2.5,ENE,12.7,-,0.13,Rain,Rain,60,2013-04-11 08:25:00
4:33 AM,44.6,42.8,93,29.84,4.0,ENE,12.7,-,0.14,Rain,Light Rain,60,2013-04-11 08:33:00
4:42 AM,44.6,42.8,93,29.85,6.0,ENE,15.0,-,0.14,Rain,Light Rain,60,2013-04-11 08:42:00
4:54 AM,43.0,42.1,97,29.83,8.0,ENE,16.1,-,0.14,Rain,Light Rain,70,2013-04-11 08:54:00
5:15 AM,42.8,42.8,100,29.81,5.0,East,19.6,26.5,0.02,Rain,Light Rain,80,2013-04-11 09:15:00
5:35 AM,42.8,42.8,100,29.80,6.0,East,18.4,24.2,0.06,Rain,Light Rain,80,2013-04-11 09:35:00
5:54 AM,43.0,42.1,97,29.79,7.0,East,17.3,-,0.07,Rain,Light Rain,100,2013-04-11 09:54:00
6:45 AM,42.8,42.8,100,29.80,8.0,East,13.8,-,0.00,Rain,Light Rain,100,2013-04-11 10:45:00
6:54 AM,43.0,42.1,97,29.80,10.0,East,13.8,-,0.01,Rain,Light Rain,100,2013-04-11 10:54:00
7:54 AM,43.0,42.1,97,29.79,9.0,ENE,16.1,-,0.00,,Overcast,70,2013-04-11 11:54:00
8:54 AM,43.0,42.1,97,29.79,8.0,ENE,13.8,-,N/A,,Overcast,70,2013-04-11 12:54:00
9:54 AM,43.0,42.1,97,29.77,7.0,ENE,16.1,-,N/A,,Overcast,70,2013-04-11 13:54:00
10:54 AM,43.0,42.1,97,29.79,7.0,ENE,23.0,26.5,N/A,,Overcast,70,2013-04-11 14:54:00
11:54 AM,44.1,43.0,96,29.78,5.0,East,19.6,26.5,N/A,,Overcast,80,2013-04-11 15:54:00
12:14 PM,44.6,42.8,93,29.75,5.0,East,17.3,27.6,N/A,,Overcast,80,2013-04-11 16:14:00
12:54 PM,42.8,42.8,100,29.77,5.0,East,20.7,26.5,N/A,,Overcast,80,2013-04-11 16:54:00
1:54 PM,44.1,43.0,96,29.74,4.0,East,19.6,27.6,0.00,,Overcast,80,2013-04-11 17:54:00
2:09 PM,44.6,42.8,93,29.73,2.5,East,20.7,28.8,N/A,,Overcast,80,2013-04-11 18:09:00
2:28 PM,44.6,44.6,100,29.72,0.2,East,19.6,-,N/A,,Overcast,80,2013-04-11 18:28:00
2:54 PM,44.1,44.1,100,29.72,0.2,East,19.6,-,N/A,,Overcast,80,2013-04-11 18:54:00
3:54 PM,44.1,43.0,96,29.72,0.2,East,17.3,-,N/A,,Overcast,80,2013-04-11 19:54:00
4:54 PM,43.0,43.0,100,29.68,0.2,East,19.6,-,0.00,,Overcast,80,2013-04-11 20:54:00
5:54 PM,43.0,43.0,100,29.68,0.2,ENE,13.8,-,0.00,Rain,Light Rain,70,2013-04-11 21:54:00
6:32 PM,42.8,42.8,100,29.65,1.0,ENE,17.3,-,0.00,Rain,Light Rain,60,2013-04-11 22:32:00
6:54 PM,41.0,41.0,100,29.66,1.0,ENE,16.1,-,0.00,Rain,Light Rain,70,2013-04-11 22:54:00
7:54 PM,39.9,39.9,100,29.65,1.5,ENE,15.0,-,0.03,Rain,Light Rain,70,2013-04-11 23:54:00
7:56 PM,39.2,39.2,100,29.63,2.0,ENE,15.0,-,0.00,Rain,Light Rain,70,2013-04-11 23:56:00
8:10 PM,41.0,39.2,93,29.63,4.0,East,15.0,-,0.02,Rain,Light Rain,80,2013-04-12 00:10:00
8:54 PM,39.9,39.9,100,29.64,5.0,ENE,13.8,19.6,0.06,Rain,Light Rain,70,2013-04-12 00:54:00
9:05 PM,39.2,39.2,100,29.60,6.0,ENE,13.8,-,0.00,Rain,Light Rain,60,2013-04-12 01:05:00
9:54 PM,39.9,39.0,97,29.60,5.0,ENE,13.8,-,0.00,Rain,Light Rain,60,2013-04-12 01:54:00
10:44 PM,39.2,39.2,100,29.60,2.5,NE,5.8,-,0.01,Rain,Light Rain,40,2013-04-12 02:44:00
10:54 PM,39.9,39.9,100,29.61,2.5,NE,10.4,-,0.02,Rain,Light Rain,50,2013-04-12 02:54:00
11:00 PM,39.2,39.2,100,29.60,4.0,ENE,10.4,-,0.00,Rain,Light Rain,70,2013-04-12 03:00:00
11:54 PM,39.9,39.9,100,29.59,3.0,ENE,10.4,-,0.02,Rain,Light Rain,60,2013-04-12 03:54:00